GFSMA_prec_cloud_123.txt.gz
Cloud_Cover
98 100 100 100 100 21 10 12 33 22 7 5 11 5 12 94 99 81 100 100 100 13 74 100 100 100 100 100 87 45 100 79 32 40 100 100 76 7 1 8 42 5 4
100 100 100 71 65 83 55 24 49 50 19 70 93 32 11 76 13 13 86 45 100 100 100 100 100 100 100 100 100 100 99 91 60 76 14 5 26 8 1 2 79 1 0
100 85 14 98 41 9 3 3 4 6 100 94 17 40 6 23 12 30 100 100 100 100 100 100 100 100 100 100 100 100 100 100 100 100 6 5 5 4 0 5 4 0 3
3 3 39 32 0 1 2 17 15 69 100 12 5 98 48 44 7 5 10 26 8 91 100 100 94 100 100 100 100 100 100 100 100 98 12 1 0 0 0 5 5 2 5
3 52 100 5 0 20 19 70 9 89 5 5 4 13 14 17 10 40 12 26 44 75 34 97 7 85 100 100 100 99 100 100 100 100 98 98 28 0 1 5 5 0 2
0 0 29 0 8 62 54 100 50 28 42 33 90 5 5 12 64 92 20 5 24 7 42 36 41 100 74 100 100 100 100 100 100 100 100 100 100 97 10 3 3 3 0
19 0 86 0 73 100 65 2 5 5 8 5 5 21 45 66 100 98 69 94 100 100 61 26 87 81 92 98 59 36 34 67 52 100 100 100 100 100 100 5 5 0 0
5 2 49 3 80 31 96 15 49 10 80 8 87 31 91 95 100 100 26 5 18 96 78 82 76 65 39 60 6 5 5 5 33 5 9 76 98 100 100 100 21 2 0
12 27 2 54 1 31 54 4 2 5 79 5 5 98 100 100 100 100 100 100 14 13 90 74 6 5 5 5 8 5 5 5 5 5 5 5 5 15 90 100 97 78 6
55 36 0 0 0 6 8 4 5 2 5 91 9 8 70 100 100 100 100 100 86 5 57 10 63 79 5 5 5 5 5 37 40 34 64 54 6 5 5 8 32 23 91
91 54 8 5 5 0 4 5 5 5 3 5 8 99 5 26 52 100 100 100 97 73 99 97 48 37 74 14 23 7 6 6 5 9 100 92 87 82 38 5 5 5 5
9 15 22 22 5 5 5 5 5 5 5 0 3 5 13 36 39 100 38 20 43 98 100 77 58 100 34 13 10 13 71 100 33 42 10 35 68 100 100 95 23 20 5
46 64 5 11 7 8 12 9 14 63 12 15 14 5 60 96 100 98 63 79 100 84 83 91 100 47 18 24 81 7 8 19 87 93 24 96 91 93 96 53 76 7 5
17 94 24 5 5 12 3 10 3 5 9 14 58 41 52 42 83 95 89 81 14 5 6 47 3 75 85 19 5 86 75 98 98 95 99 100 100 100 100 100 68 100 94
12 4 9 20 28 26 1 2 0 2 0 11 0 0 0 2 1 52 13 3 1 1 0 2 32 31 19 55 93 100 98 100 100 7 7 34 72 5 5 7 9 26 5
2 4 7 3 24 15 28 3 0 5 0 62 5 17 0 1 6 56 66 84 100 97 55 38 47 64 42 100 43 22 26 36 38 2 0 0 1 2 0 0 2 5 5
48 1 3 29 10 14 5 5 1 9 86 31 3 10 26 2 4 5 9 66 90 42 75 90 52 15 5 3 5 50 82 47 64 4 0 1 4 2 1 0 5 3 4
100 94 13 5 15 6 90 93 24 0 75 26 4 55 21 19 70 17 5 12 7 11 8 46 49 99 79 99 8 39 5 94 96 96 14 82 19 79 3 2 5 5 5
12 37 98 63 5 34 11 28 18 6 15 6 79 44 19 43 11 24 81 20 82 100 100 100 100 100 81 99 100 100 100 100 97 84 83 66 64 15 94 66 99 99 100
10 32 5 13 12 40 28 8 93 41 68 94 29 81 68 100 79 78 90 86 100 84 96 100 68 82 100 80 100 90 99 100 96 74 89 30 35 21 5 5 25 85 18
22 5 4 12 27 80 94 47 11 26 19 48 27 43 97 99 61 89 100 100 92 85 100 97 94 76 98 100 92 70 94 93 61 91 37 64 74 7 5 5 5 52 81
7 91 79 11 65 64 7 0 24 0 23 18 35 34 27 40 5 52 91 93 90 100 81 94 99 90 100 74 95 100 100 96 100 44 100 100 100 95 8 5 5 5 5
99 100 81 100 100 100 100 84 5 5 13 28 70 33 15 51 47 88 22 59 100 99 56 63 98 96 98 71 100 100 99 71 88 99 17 98 100 100 94 88 5 5 5
100 100 100 100 92 100 100 100 100 15 43 12 63 71 72 85 47 81 72 80 86 80 31 88 59 100 82 92 78 32 86 69 100 100 100 98 100 100 100 69 38 73 84
100 99 100 100 100 100 100 98 100 100 89 29 77 100 100 100 100 84 97 100 91 100 100 91 79 88 63 76 94 96 97 42 100 100 92 21 100 99 97 100 12 61 10
93 100 100 100 100 100 100 100 100 100 100 100 100 100 100 100 100 100 100 100 99 94 71 28 86 72 51 65 80 90 75 35 88 100 100 100 92 23 34 100 100 41 5

GFSMA_prec_cloud_129.txt.gz
Cloud_Cover
100 94 92 100 100 95 5 1 1 41 37 49 70 100 100 90 100 83 32 12 13 5 5 5 6 5 14 98 100 98 90 5 3 0 0 0 0 0 0 9 59 1 0
5 91 23 23 24 8 1 13 2 16 3 8 57 90 100 100 100 59 97 100 99 73 80 61 80 100 70 28 100 100 97 86 50 4 0 0 0 0 0 5 3 0 0
98 52 62 50 0 25 11 66 100 63 5 18 86 100 100 92 23 42 100 100 8 5 5 5 5 7 55 76 73 100 80 21 47 5 58 5 0 0 2 48 5 5 0
8 5 0 93 24 0 5 62 76 86 99 100 79 82 6 13 43 100 100 92 100 100 100 93 67 92 32 45 84 60 12 7 5 8 54 97 73 3 0 0 5 28 10
5 3 2 0 0 30 48 91 86 100 100 60 78 51 100 87 21 100 100 85 100 100 100 100 100 100 97 64 5 5 5 5 5 5 5 55 100 85 3 1 5 75 100
1 5 34 4 5 2 2 6 75 100 95 32 53 94 26 5 94 100 85 100 100 100 100 100 100 100 100 100 5 5 5 5 5 5 5 5 27 100 13 4 0 5 30
0 13 100 97 6 27 17 73 100 96 30 56 100 59 43 32 96 100 100 100 100 100 100 100 100 100 100 100 56 5 5 5 91 5 5 5 5 5 14 5 5 2 0
9 100 100 100 100 100 100 100 80 39 92 100 100 98 100 100 94 100 100 100 100 100 100 100 100 100 100 100 57 5 36 24 5 38 81 79 8 5 5 5 5 5 5
100 100 100 100 100 100 100 100 100 99 100 100 100 100 98 89 100 100 100 100 100 100 100 100 99 99 97 97 58 62 87 7 1 4 13 100 98 29 2 1 5 5 5
100 100 100 100 100 100 100 100 100 100 100 100 100 92 99 100 100 100 100 100 100 100 99 68 100 15 9 97 93 5 1 0 0 0 5 58 52 64 98 5 3 3 5
98 96 100 100 100 100 100 100 100 100 100 100 100 100 100 100 100 100 93 100 99 100 100 10 14 94 61 67 98 4 0 0 5 5 5 2 5 5 35 5 5 5 5
53 80 100 100 100 100 100 100 100 100 100 100 100 100 77 76 8 74 94 74 100 71 89 90 100 100 26 74 64 0 1 4 8 94 34 5 6 1 0 1 5 4 2
0 0 74 98 100 100 100 100 100 100 100 100 93 5 74 100 5 5 61 21 100 77 55 100 86 84 67 46 8 4 4 5 24 71 71 88 36 7 4 0 1 5 5
0 0 0 0 6 97 43 63 100 90 82 10 5 86 100 100 5 86 17 3 5 5 9 5 5 84 93 100 100 100 100 100 80 100 97 100 83 75 27 5 5 2 5
0 0 0 0 0 0 0 0 1 5 4 0 30 98 56 3 0 1 21 5 5 52 56 5 6 71 93 100 94 100 100 100 100 100 100 100 100 86 5 5 4 22 11
3 0 0 0 0 0 0 0 0 0 0 0 0 4 0 1 2 1 0 1 4 3 5 5 5 44 99 85 100 100 100 100 100 100 100 96 100 100 78 32 75 50 60
5 9 5 15 2 4 4 0 0 4 4 2 0 1 0 5 5 5 5 0 0 5 68 90 100 99 38 100 100 100 100 100 100 100 100 100 100 100 100 100 92 100 59
5 5 6 5 3 5 5 2 0 0 4 5 4 5 22 5 5 5 3 6 5 5 100 99 64 92 96 100 100 100 100 100 100 100 100 99 100 100 100 100 100 100 100
14 31 45 66 12 12 64 95 25 62 75 83 58 29 32 5 4 5 13 92 7 98 71 100 58 36 48 93 94 93 100 100 100 100 99 100 99 100 100 100 100 100 100
90 81 15 100 100 100 100 100 100 100 100 75 25 26 56 34 100 100 100 100 94 90 83 90 74 86 52 70 100 100 98 90 79 47 100 80 99 66 96 100 100 100 100
94 100 88 93 99 100 100 100 100 100 100 100 100 100 90 100 100 100 100 100 94 5 6 80 50 98 100 89 92 100 86 92 67 38 99 88 100 100 90 100 100 99 82
5 45 68 82 5 79 82 99 83 90 90 77 66 100 100 97 19 94 95 6 5 5 5 45 74 69 6 66 61 65 99 56 42 67 100 100 98 100 100 96 99 70 7
100 53 90 29 9 21 17 4 4 2 3 25 99 100 84 56 100 5 5 5 13 14 82 51 95 100 87 94 84 42 33 64 86 100 100 100 94 78 99 100 87 63 9
100 100 100 100 100 74 81 85 84 74 73 15 74 48 64 52 25 58 11 44 76 100 100 100 100 100 95 100 78 99 92 100 100 100 97 99 99 94 68 72 48 40 45
100 100 100 100 100 100 100 100 92 93 86 70 90 78 98 89 99 93 61 75 83 51 100 100 100 100 100 100 100 100 100 100 100 99 59 88 100 100 100 100 100 99 63
100 100 100 100 96 100 100 100 100 100 100 100 100 100 100 100 100 100 100 60 70 91 99 100 100 100 100 100 100 100 100 100 100 100 98 79 100 100 73 78 100 100 100

GFSMA_prec_cloud_132.txt.gz
Cloud_Cover
100 100 100 100 100 97 94 46 50 94 14 59 75 5 6 48 100 100 100 100 100 100 100 100 95 35 72 90 99 27 5 34 4 2 0 0 2 5 5 7 5 4 5
100 100 98 98 85 10 17 84 100 91 80 76 62 98 74 100 51 20 26 98 71 11 96 100 100 87 96 100 79 30 65 5 45 51 4 0 0 5 66 2 2 3 1
100 31 94 16 6 3 13 42 87 53 100 74 89 100 79 100 99 99 100 100 100 100 100 99 100 100 100 100 100 96 8 13 5 20 5 4 0 1 4 8 41 3 4
59 19 17 0 0 5 5 83 1 80 35 50 5 100 96 91 100 100 49 100 100 100 100 100 100 100 100 100 100 44 97 9 2 5 46 9 12 1 0 0 7 68 70
42 6 0 0 0 3 25 3 5 6 100 27 5 36 90 100 100 81 88 100 100 100 100 100 100 100 99 100 94 93 82 5 0 4 9 5 5 14 3 0 1 10 99
3 0 0 4 3 30 4 80 17 38 91 40 19 16 90 100 100 100 100 100 100 99 100 100 100 100 100 74 46 17 18 0 0 4 1 5 5 5 5 5 0 0 5
0 0 4 5 60 2 0 5 5 41 58 45 99 100 100 100 97 100 84 100 100 100 100 100 100 100 98 87 7 5 14 5 0 5 5 62 9 0 5 5 5 0 0
0 37 17 5 4 0 0 5 10 100 99 78 92 100 99 83 99 100 100 100 100 100 100 100 100 96 82 85 5 5 5 5 3 1 4 5 11 51 4 0 0 5 2
4 5 0 2 22 5 29 5 85 88 50 100 100 88 99 100 84 100 100 100 100 100 100 100 96 67 85 42 85 5 5 5 4 4 5 4 1 5 5 0 0 0 1
6 0 6 96 100 100 100 69 98 100 100 100 100 45 100 98 81 85 98 100 100 100 84 91 86 98 41 5 7 84 2 20 5 1 10 5 5 5 5 5 5 4 0
100 100 83 80 86 99 60 100 81 87 86 73 95 57 96 22 100 72 5 20 84 92 69 69 90 9 6 16 6 83 96 83 5 6 57 7 4 4 5 5 5 2 4
75 96 41 100 60 5 21 38 100 85 100 100 67 100 76 52 83 9 4 73 5 10 36 27 5 28 100 100 100 100 100 100 96 95 100 100 66 5 22 5 5 6 7
4 25 8 7 99 74 80 96 100 100 100 100 31 76 100 24 3 26 5 5 2 7 42 6 5 22 66 90 100 100 73 11 79 100 100 75 100 60 12 86 47 5 24
60 100 99 58 76 56 100 100 100 100 100 100 32 2 100 14 0 6 2 15 5 5 5 6 5 51 100 100 100 100 90 21 93 95 100 100 100 100 99 100 100 99 60
32 100 100 100 100 100 98 51 78 83 100 61 5 100 100 35 6 5 2 6 5 8 5 6 6 87 90 100 100 100 100 100 99 100 100 100 100 100 100 100 100 100 100
0 0 37 2 57 100 98 5 5 4 1 5 42 62 42 15 6 5 5 7 75 100 100 100 69 47 86 96 100 100 34 38 98 100 100 100 100 100 91 88 100 90 100
0 0 3 4 5 5 3 4 0 0 5 0 0 5 3 4 5 5 5 5 15 5 20 14 100 95 90 99 77 100 100 90 100 100 100 100 100 100 100 100 100 100 62
0 0 0 0 2 4 5 5 3 2 0 4 2 5 69 70 5 4 34 54 36 6 11 100 7 64 65 21 26 100 100 100 100 100 100 95 91 100 100 100 100 100 100
0 5 2 0 2 5 5 5 1 1 2 5 47 99 75 21 26 5 76 100 100 99 61 61 61 48 88 56 60 74 99 60 70 27 27 88 95 86 99 90 69 100 100
2 5 5 5 5 75 100 90 98 60 91 98 98 54 15 8 7 12 100 76 13 38 94 87 90 48 31 5 30 28 75 73 86 78 46 100 52 97 52 76 81 10 28
8 5 5 5 5 6 26 38 57 26 55 100 42 71 32 46 8 70 61 100 100 100 100 59 97 97 83 48 76 69 46 59 81 94 92 100 100 100 100 86 100 99 98
90 100 100 60 35 15 56 58 69 100 100 100 100 100 100 92 100 100 99 100 98 100 96 30 5 5 12 93 40 45 43 34 42 62 7 51 100 100 100 100 100 16 96
14 6 59 100 100 100 96 98 100 100 100 99 98 100 100 26 65 60 100 100 80 33 11 12 28 68 100 78 65 66 73 46 48 87 49 100 68 100 100 100 100 100 97
33 24 60 40 98 78 26 8 6 24 84 88 19 28 19 14 60 63 58 99 52 87 98 95 100 100 100 100 100 100 76 74 58 90 100 96 100 100 100 100 100 100 78
92 99 99 76 92 81 48 48 82 100 100 97 100 62 86 97 100 97 39 78 100 67 100 100 100 100 100 100 100 100 100 100 100 100 100 100 100 100 100 100 100 99 100
100 100 100 94 75 100 100 100 100 100 100 100 100 100 100 100 100 100 100 100 100 100 100 100 100 100 100 100 100 100 100 100 100 100 100 100 100 100 100 100 100 100 100

GFSMA_prec_cloud_135.txt.gz
Cloud_Cover
97 100 82 70 100 74 29 88 44 85 72 100 100 77 100 73 5 5 56 98 100 100 100 100 100 100 100 100 100 100 100 100 98 2 0 0 0 2 70 95 1 3 90
100 42 100 91 100 15 11 13 80 23 100 100 100 100 100 22 54 99 100 100 100 100 100 100 100 100 100 100 44 24 97 100 99 72 0 0 0 5 1 5 5 0 0
44 100 96 64 9 0 5 86 37 5 23 97 100 28 100 98 87 100 100 100 100 100 100 100 100 99 100 100 94 8 5 16 47 16 5 2 0 0 4 2 4 5 85
100 74 54 5 0 2 5 90 24 88 91 100 99 92 100 100 100 100 100 68 91 75 96 100 100 66 65 15 8 5 5 4 4 5 1 5 5 0 0 4 18 75 91
88 5 4 0 0 5 6 10 97 99 17 100 100 100 98 98 91 100 100 100 100 100 88 100 100 79 12 5 4 5 6 4 5 4 2 0 2 4 3 0 0 3 99
32 1 0 0 1 3 5 6 29 28 11 100 93 89 89 94 92 99 83 38 98 100 95 100 100 100 24 6 33 17 14 5 2 5 2 0 0 0 0 3 0 0 3
4 0 0 0 2 4 5 32 100 42 72 100 100 100 92 100 74 98 100 88 100 68 93 100 96 72 5 23 12 5 5 5 0 4 5 4 3 5 0 0 1 4 0
0 0 0 0 5 5 5 18 62 55 39 98 80 77 28 78 100 90 61 75 100 91 100 62 37 83 26 5 64 5 6 5 5 5 43 4 5 5 5 4 0 0 1
0 0 0 5 4 4 5 5 54 72 53 26 36 99 100 85 100 11 28 82 71 74 92 25 94 61 7 5 50 15 100 88 69 24 12 5 1 4 5 4 0 1 1
0 0 1 13 3 0 5 4 50 54 100 99 73 100 70 30 87 100 100 74 70 90 88 78 42 89 7 5 18 43 100 100 20 100 100 100 100 94 26 5 4 2 5
0 0 0 4 3 0 32 19 41 80 99 91 82 99 29 95 60 5 5 18 5 74 92 5 62 100 100 6 5 5 10 45 100 100 100 100 100 100 100 100 100 21 5
3 72 16 6 9 5 27 18 80 11 68 94 53 93 25 46 68 5 7 22 6 67 100 53 20 5 39 100 10 22 28 30 70 100 100 100 48 83 100 100 100 100 90
75 90 25 48 82 5 62 74 44 84 99 39 34 21 6 27 21 5 5 52 76 100 100 31 89 40 80 100 100 96 98 100 49 77 100 100 73 100 78 97 100 100 100
72 82 3 31 76 19 6 82 54 100 97 99 6 7 23 100 34 5 67 21 91 75 100 56 28 100 100 100 90 100 100 65 98 100 100 100 100 100 100 97 89 97 100
5 5 1 5 44 63 36 82 88 100 66 97 89 5 20 94 70 56 100 100 99 97 100 74 5 43 8 5 6 83 79 34 100 100 100 100 100 89 100 26 60 98 100
0 0 12 37 7 9 97 100 100 100 100 83 3 5 3 5 5 5 24 99 60 68 48 12 39 6 5 5 13 99 100 100 100 100 100 14 7 96 72 5 53 100 100
0 0 4 9 2 15 79 100 71 9 7 0 2 5 5 18 5 2 2 5 5 5 5 5 5 5 5 6 85 55 80 71 100 100 100 100 100 22 38 26 30 40 100
0 0 3 0 0 1 6 6 3 0 0 0 2 5 4 5 5 5 5 16 5 8 47 5 38 7 6 6 5 14 13 30 26 17 66 87 89 100 100 70 6 22 37
0 0 0 0 1 0 0 1 0 0 2 1 0 4 5 7 5 5 5 5 55 14 69 96 42 100 100 41 62 17 17 13 18 100 16 62 44 97 99 45 9 27 47
0 0 0 0 0 4 4 4 3 11 2 10 16 60 77 62 28 24 26 46 99 100 100 100 100 100 79 99 78 87 96 53 7 32 56 38 99 94 98 90 100 95 20
0 0 0 0 1 5 10 8 22 9 5 31 76 78 100 100 100 96 100 100 100 100 100 100 100 100 28 5 8 26 62 31 88 24 15 38 100 100 100 98 100 100 82
4 8 98 29 33 8 81 95 100 58 92 82 100 100 100 100 100 100 100 100 100 100 100 100 100 43 5 5 5 6 18 78 37 94 93 73 79 99 100 100 100 100 100
9 5 100 100 100 30 88 97 82 57 75 93 99 100 100 100 100 100 96 76 56 70 83 100 100 94 42 28 56 38 41 100 72 100 100 63 90 100 100 100 100 100 100
96 92 70 100 100 59 94 89 53 30 100 100 100 100 100 78 98 82 57 78 78 91 84 100 70 79 95 82 100 91 90 82 75 91 100 100 84 91 96 100 100 100 100
100 100 100 100 100 57 50 43 45 21 62 78 99 96 96 99 100 100 89 97 56 97 75 93 99 100 100 100 100 100 100 100 100 100 100 100 100 100 100 100 100 100 100
100 100 100 100 100 100 100 100 100 87 83 100 99 100 100 100 100 100 100 100 100 100 100 100 100 100 100 100 100 100 100 100 100 100 100 100 100 100 100 100 100 100 100

GFSMA_prec_cloud_138.txt.gz
Cloud_Cover
21 17 46 5 16 52 6 5 91 15 95 4 5 5 5 38 17 49 100 100 100 100 100 32 29 8 82 33 5 6 15 5 5 3 0 0 0 0 0 5 15 100 90
8 35 6 5 61 4 33 46 50 19 5 53 99 50 73 5 78 52 73 100 100 100 89 5 5 5 5 20 43 5 95 5 5 5 0 0 0 0 0 56 57 25 38
98 97 14 5 47 8 12 99 92 48 31 79 92 99 73 18 5 5 44 94 100 95 8 9 5 5 5 5 5 5 5 5 3 5 5 8 0 0 0 3 6 67 89
70 90 26 5 0 5 7 18 29 57 100 32 100 100 99 99 100 100 93 80 100 100 71 47 12 25 86 23 80 33 5 5 5 1 5 5 8 3 0 0 4 2 3
98 78 67 2 0 5 5 5 4 100 9 17 53 94 100 88 60 89 96 91 100 64 94 100 100 81 52 27 55 5 4 5 5 5 4 0 5 5 4 0 1 4 5
14 95 5 0 3 10 7 5 92 98 100 90 65 68 91 26 95 100 84 50 96 48 29 98 86 99 15 5 5 5 5 5 5 6 5 5 5 5 5 5 0 1 5
11 5 0 0 5 30 5 4 100 91 78 100 100 91 79 76 83 21 61 75 51 67 88 100 5 5 21 54 5 8 100 100 100 97 99 6 40 64 5 2 3 2 0
4 0 0 1 5 51 5 0 74 95 63 79 5 77 100 82 77 76 41 95 80 69 80 8 81 5 6 100 100 100 30 100 100 100 100 91 30 92 16 5 5 1 5
0 0 0 0 5 46 2 30 48 49 18 5 80 80 81 26 10 63 69 24 31 87 98 76 39 5 4 12 57 100 100 100 100 90 98 100 100 100 100 90 16 5 5
0 0 0 0 5 5 4 5 7 6 32 5 11 30 90 87 5 44 18 37 14 74 100 100 100 100 74 9 5 5 8 100 100 81 42 46 100 100 100 100 100 28 70
0 0 0 0 3 2 1 5 18 100 5 5 5 5 36 8 5 5 5 5 27 72 87 100 100 100 86 80 5 95 29 100 100 100 94 13 77 59 100 100 100 100 85
0 0 0 5 5 2 0 3 6 5 8 5 5 8 7 5 5 5 5 5 54 81 96 69 27 94 100 100 54 15 83 99 100 100 100 46 95 23 43 10 28 87 83
0 0 5 22 2 0 0 3 4 32 28 5 32 40 5 5 5 5 5 10 5 5 11 51 76 99 100 100 100 100 80 100 100 100 100 5 12 54 18 5 5 0 3
0 0 0 0 0 0 2 5 13 26 28 23 48 6 5 5 5 5 5 5 5 5 5 100 100 92 36 62 82 100 100 100 100 100 100 75 36 33 92 18 8 42 100
3 0 0 0 4 5 0 46 5 5 36 49 57 1 29 1 5 5 5 5 5 5 5 14 68 5 26 66 100 100 94 100 64 94 100 86 7 16 5 39 95 100 100
0 0 0 0 0 4 7 5 5 5 5 4 61 0 5 3 2 0 5 5 5 5 20 57 49 14 65 55 51 95 100 92 39 27 5 12 6 9 5 76 93 100 100
0 0 0 0 0 3 97 34 5 5 0 3 8 1 48 10 5 5 4 4 5 12 5 5 43 37 50 81 34 27 15 81 39 65 70 100 39 5 5 5 5 92 100
0 0 4 0 1 5 6 5 13 6 5 4 0 6 68 8 6 5 5 5 5 6 32 5 6 58 86 100 100 77 98 100 100 90 7 8 5 5 8 5 5 6 79
0 0 5 6 4 0 4 7 28 13 2 0 0 1 7 11 3 5 5 5 5 35 55 35 13 51 90 100 97 29 97 99 97 88 5 5 6 5 17 77 55 61 66
0 0 0 0 1 0 0 0 0 0 0 4 5 3 5 52 100 49 70 13 5 13 30 58 51 35 16 99 100 32 44 79 42 100 7 5 18 51 39 98 100 97 68
0 0 0 0 0 0 2 4 16 86 6 9 98 73 100 100 63 67 90 84 87 73 93 100 70 100 100 100 100 90 70 63 90 82 13 5 17 59 51 64 89 84 72
0 0 0 0 0 0 10 4 5 13 5 5 16 100 100 47 100 52 41 100 100 100 100 100 100 100 100 100 100 100 100 91 62 100 100 100 75 98 100 100 100 100 100
0 0 0 0 0 6 7 0 21 77 100 18 12 52 98 90 100 100 100 100 100 100 100 100 100 100 100 100 100 100 97 100 100 100 100 98 88 100 95 100 100 100 100
0 0 0 0 18 56 60 50 100 100 100 79 92 87 97 100 100 100 100 100 100 100 100 100 33 99 100 100 100 100 100 100 100 100 100 100 96 100 100 100 100 100 100
86 98 64 89 92 83 73 58 99 99 100 95 100 100 100 100 100 100 100 100 100 100 100 100 100 100 100 100 100 100 100 100 100 100 100 100 100 100 100 100 100 100 100
100 100 100 100 100 100 100 100 100 100 100 100 100 100 100 100 100 100 100 100 100 100 100 100 100 100 100 100 100 100 100 100 100 100 100 100 100 100 100 100 100 100 100

GFSMA_prec_cloud_141.txt.gz
Cloud_Cover
6 39 5 8 36 48 73 6 31 5 5 21 9 6 6 8 52 42 25 78 32 11 86 56 42 30 5 5 8 8 15 23 0 0 2 0 3 12 100 100 35 86 36
6 5 4 3 58 100 5 5 43 5 24 5 52 37 6 5 5 5 5 22 5 7 75 92 78 25 5 17 12 5 5 6 97 46 1 0 0 12 19 5 4 1 42
5 1 4 0 80 98 5 5 5 5 5 5 5 5 5 5 5 5 5 6 6 48 88 13 96 100 99 21 20 5 5 5 4 2 16 4 0 1 65 12 5 5 5
7 5 5 4 71 97 4 5 44 5 5 5 5 6 20 13 65 72 22 18 70 78 60 78 98 100 83 55 38 17 5 5 5 0 0 1 5 1 1 5 5 5 5
5 5 5 4 5 58 4 5 61 5 3 4 12 5 6 27 92 5 5 5 50 26 20 68 52 55 100 93 88 50 54 41 29 5 5 2 5 5 5 0 2 2 4
5 5 4 4 13 5 5 5 62 5 69 6 5 5 5 16 5 13 5 5 7 5 15 5 5 74 23 100 63 18 100 78 93 90 22 5 2 5 5 5 0 0 0
4 4 0 0 5 2 5 5 30 55 44 7 5 68 5 8 5 20 64 5 5 5 5 100 100 100 100 100 100 15 30 100 100 100 82 82 8 5 33 5 5 3 0
5 4 0 0 5 0 3 94 99 9 5 23 5 5 5 5 5 8 18 5 5 7 3 5 5 17 95 100 100 100 72 10 62 8 98 92 55 67 95 100 22 5 5
4 0 0 0 0 0 3 100 9 5 5 48 12 5 5 5 5 5 12 5 5 5 5 5 5 5 5 5 10 100 100 96 5 9 5 40 96 15 5 60 91 97 24
4 0 0 0 0 5 6 77 5 5 0 4 5 5 5 5 2 5 5 13 26 70 45 45 5 5 5 5 44 98 100 100 5 5 68 5 5 76 98 61 14 68 70
0 0 0 0 0 2 5 57 5 3 5 3 5 5 5 5 3 5 6 5 5 47 26 5 100 73 5 20 39 100 91 100 96 100 100 67 5 5 5 21 43 5 75
0 0 0 0 0 0 14 5 5 5 5 5 2 5 5 5 3 2 5 5 5 5 5 5 17 96 100 100 78 100 100 100 100 100 97 66 50 33 6 5 4 5 5
0 0 0 0 0 5 20 2 5 5 5 5 5 5 5 5 5 1 0 4 1 0 5 14 60 96 100 100 100 100 100 100 100 100 32 39 46 5 5 5 5 4 12
0 0 0 0 0 5 5 3 6 7 53 60 6 5 3 1 4 0 0 1 0 0 6 100 92 9 29 60 100 100 100 100 99 82 67 99 40 5 5 5 20 82 100
0 0 0 0 0 0 0 0 3 54 94 7 27 4 5 0 2 0 4 5 5 0 3 32 5 38 87 10 61 96 100 100 10 93 44 8 5 5 5 6 84 100 100
0 0 0 0 0 0 0 0 2 5 5 5 3 4 0 3 0 3 1 5 4 5 12 68 6 5 13 77 78 26 34 26 61 47 11 5 5 5 5 5 39 99 100
0 0 0 0 0 0 5 4 5 5 5 0 2 39 0 2 5 1 5 5 5 6 5 15 7 29 81 100 9 54 22 70 46 100 100 42 5 7 42 65 97 97 97
0 0 0 0 0 0 0 5 5 5 3 5 5 5 0 5 5 5 12 24 5 8 12 35 12 28 93 21 57 100 100 100 100 77 100 100 48 98 58 38 18 22 15
0 0 0 0 0 0 6 5 84 5 5 9 5 1 4 7 14 67 22 40 73 34 29 40 9 81 42 78 75 100 100 100 100 100 91 29 94 78 62 96 100 100 79
0 0 0 0 0 3 5 2 3 5 5 5 1 5 5 11 26 74 85 86 51 11 73 100 100 100 100 92 91 99 100 100 100 100 100 100 66 97 94 100 100 100 92
0 0 0 0 3 5 5 0 0 0 6 2 0 46 99 100 100 100 100 100 75 37 90 100 100 100 92 100 100 100 100 100 100 100 100 100 28 78 100 98 86 100 96
0 0 0 0 0 2 15 2 4 6 5 3 24 74 34 92 100 100 52 9 30 28 92 100 100 100 100 100 100 100 100 100 100 100 92 96 96 99 98 100 100 100 100
0 6 6 0 0 0 23 30 15 46 92 63 46 47 86 5 7 73 49 10 98 100 100 96 80 97 100 100 100 97 100 98 79 95 100 100 82 100 100 80 68 100 100
41 11 1 20 0 1 27 11 26 0 50 91 98 98 56 14 11 62 96 100 100 100 100 100 100 100 100 100 100 100 100 100 100 100 100 100 100 100 100 100 100 100 100
94 55 5 29 1 55 97 51 29 84 100 91 59 100 97 95 100 100 99 91 100 100 100 100 100 100 100 100 100 100 100 100 100 100 100 100 100 100 100 100 100 100 100
100 80 41 41 88 86 100 98 74 100 99 83 49 100 99 100 100 100 92 100 100 100 100 100 100 100 100 100 100 100 100 100 100 100 100 100 100 100 100 74 80 99 97

GFSMA_prec_cloud_144.txt.gz
Cloud_Cover
12 19 31 14 5 4 9 47 85 99 44 86 72 91 7 5 5 5 5 34 18 92 87 100 98 98 99 89 99 71 91 5 2 2 0 0 0 0 2 49 42 96 61
20 5 16 27 12 34 28 27 85 84 82 83 72 92 53 5 0 5 2 0 5 6 100 48 100 99 74 21 23 18 5 15 67 70 0 0 0 0 0 5 54 100 100
0 4 4 37 11 5 10 45 100 14 58 35 38 51 18 1 5 4 2 5 5 96 95 99 80 71 9 71 13 89 5 5 100 100 100 2 0 0 2 5 8 89 100
0 5 9 26 10 5 40 98 18 8 12 34 5 30 5 5 1 5 5 5 7 97 99 6 5 14 99 60 75 68 68 24 100 100 83 5 4 0 0 5 41 19 16
5 4 5 31 5 4 41 67 6 5 55 31 6 69 24 3 5 5 5 5 5 5 39 67 10 5 15 100 100 100 100 60 82 100 100 34 4 4 0 0 1 4 5
17 7 7 1 2 0 4 7 4 3 6 56 28 81 17 5 5 5 5 5 5 5 5 92 100 74 5 5 5 32 97 100 95 83 78 100 22 3 2 2 0 0 0
0 5 3 0 0 0 1 5 1 0 5 35 67 84 25 5 14 5 5 5 24 28 5 44 98 98 100 78 20 5 5 5 77 69 100 41 13 93 7 3 2 0 0
3 0 0 0 0 0 0 5 4 4 0 17 66 92 93 18 14 5 5 5 0 4 0 2 3 5 44 100 81 5 5 5 7 99 87 5 5 67 100 5 3 15 7
2 3 3 0 3 0 2 6 5 3 3 5 12 76 100 100 5 6 10 5 5 2 0 4 5 1 5 37 100 85 10 20 24 6 6 5 48 37 44 100 54 5 8
5 5 5 0 3 0 6 53 5 0 5 8 5 73 97 23 5 5 44 17 5 5 14 2 0 0 3 20 44 100 100 91 8 5 5 5 5 5 5 16 100 95 100
5 5 0 0 0 0 6 7 5 0 3 5 5 56 38 5 5 1 5 32 20 5 6 97 19 4 9 100 100 78 100 98 99 9 4 4 0 5 5 9 5 48 91
1 1 11 0 0 0 1 27 5 1 0 4 5 5 15 20 40 56 24 2 5 5 5 5 33 100 44 96 80 100 94 100 16 5 5 5 5 5 4 5 5 5 4
65 64 1 0 0 0 0 2 2 0 0 4 5 6 16 2 0 5 5 0 0 2 7 5 82 10 66 49 53 87 100 5 76 5 21 5 5 5 5 5 5 5 22
99 62 17 0 0 0 2 4 3 2 5 5 1 5 5 4 1 0 5 0 0 5 18 16 17 52 92 47 58 99 35 8 8 5 5 5 5 5 5 5 10 10 51
26 5 24 1 0 0 0 5 5 8 96 74 29 4 5 0 0 8 5 0 12 22 64 100 98 98 98 82 25 5 34 100 57 7 5 5 5 5 5 6 41 44 91
2 0 0 0 0 0 2 4 4 60 68 76 100 31 60 2 1 7 8 6 10 41 53 82 100 86 82 73 65 7 7 5 5 5 8 79 24 36 65 75 45 98 100
0 0 0 0 0 3 6 2 3 18 18 16 9 5 48 39 5 5 28 16 0 16 54 39 97 50 59 96 100 100 97 89 69 5 5 36 100 99 23 13 64 74 100
0 0 0 0 0 0 4 19 5 5 10 18 18 24 13 23 41 14 5 0 5 11 95 63 73 20 100 88 100 28 10 100 100 100 94 82 97 100 76 100 97 17 93
0 0 0 0 0 0 1 63 71 13 8 11 9 15 17 12 10 5 9 14 6 64 100 100 33 65 75 56 29 84 86 100 100 100 100 100 100 100 100 100 97 98 100
0 0 0 0 0 4 1 0 5 39 72 24 21 6 8 16 27 49 100 77 58 100 82 52 49 64 92 76 93 94 97 100 100 100 100 100 100 100 100 100 100 25 89
3 17 15 7 0 0 0 0 3 6 23 21 15 18 66 74 62 100 100 100 96 100 100 100 100 78 98 100 100 100 100 100 100 100 100 100 100 100 98 100 100 100 99
14 12 0 12 12 1 0 0 4 5 7 15 5 71 74 48 24 75 100 100 99 66 70 47 69 72 92 97 88 100 100 56 97 98 100 70 98 36 84 100 100 99 100
65 100 22 32 8 16 0 0 0 5 5 30 22 35 49 100 100 84 29 34 34 16 45 38 81 70 97 84 99 100 100 100 100 100 100 100 94 98 97 100 100 100 100
93 98 10 58 24 0 0 0 0 4 1 40 24 38 57 82 27 49 95 76 52 74 81 98 88 80 97 100 100 100 100 100 100 100 100 100 100 85 50 39 83 88 90
89 97 39 70 42 20 18 25 38 0 23 76 100 99 100 65 8 7 61 100 100 90 96 96 100 100 100 100 100 100 100 100 100 100 99 100 100 99 100 100 100 100 100
69 100 100 92 7 5 93 48 22 8 100 100 92 67 40 9 45 97 100 100 100 100 100 100 100 100 100 100 100 100 100 100 82 97 82 78 84 37 5 5 5 6 5